| time (UTC) | temp F | wind direction | speed MPH | gust MPH | rain 1hr in | rain 24hr in | rain mn in | humidity % | barometer mb |
| 20260901050028 | 72 | 235 | 1.0 | 5.0 | 0.00 | 0.00 | 0.00 | 100 | 1014.9 |
| 20260901044525 | 72 | 281 | 1.0 | 5.0 | 0.00 | 0.00 | 0.00 | 100 | 1015.0 |
| 20260901043019 | 71 | 259 | 1.0 | 3.0 | 0.00 | 0.00 | 0.00 | 100 | 1015.0 |
| 20260901041514 | 71 | 248 | 1.0 | 3.0 | 0.00 | 0.00 | 0.00 | 100 | 1015.0 |
| 20260901040013 | 71 | 234 | 2.0 | 5.0 | 0.00 | 0.00 | 0.00 | 100 | 1014.8 |
| 20260901034510 | 71 | 234 | 2.0 | 7.0 | 0.00 | 0.00 | 0.00 | 100 | 1014.8 |
| 20260901033004 | 71 | 234 | 1.0 | 4.0 | 0.00 | 0.00 | 0.00 | 100 | 1015.0 |
| 20260901031557 | 71 | 254 | 1.0 | 5.0 | 0.00 | 0.00 | 0.00 | 100 | 1015.1 |
| 20260901030052 | 71 | 231 | 1.0 | 5.0 | 0.00 | 0.00 | 0.00 | 100 | 1015.2 |
| 20260901024548 | 71 | 252 | 2.0 | 6.0 | 0.00 | 0.00 | 0.00 | 100 | 1015.1 |
| 20260901023043 | 71 | 244 | 1.0 | 4.0 | 0.00 | 0.00 | 0.00 | 100 | 1015.2 |
| 20260901021549 | 71 | 189 | 0.0 | 0.0 | 0.00 | 0.00 | 0.00 | 100 | 1015.2 |
| 20260901020034 | 71 | 189 | 0.0 | 0.0 | 0.00 | 0.00 | 0.00 | 100 | 1015.2 |
| 20260901014530 | 72 | 189 | 0.0 | 2.0 | 0.00 | 0.00 | 0.00 | 100 | 1015.4 |
| 20260901013033 | 71 | 169 | 1.0 | 2.0 | 0.00 | 0.00 | 0.00 | 100 | 1015.4 |
| 20260901011521 | 72 | 169 | 0.0 | 1.0 | 0.00 | 0.00 | 0.00 | 100 | 1015.3 |
| 20260901010038 | 72 | 169 | 0.0 | 2.0 | 0.00 | 0.00 | 0.00 | 100 | 1015.6 |
| 20260901004515 | 72 | 169 | 0.0 | 2.0 | 0.00 | 0.00 | 0.00 | 100 | 1015.4 |
| 20260901003008 | 72 | 163 | 0.0 | 0.0 | 0.00 | 0.00 | 0.00 | 100 | 1015.4 |
| 20260901001504 | 73 | 162 | 0.0 | 0.0 | 0.00 | 0.00 | 0.00 | 100 | 1015.5 |
| 20260901000059 | 73 | 162 | 0.0 | 0.0 | 0.00 | 0.00 | 0.00 | 100 | 1015.4 |
| 20260831234555 | 74 | 162 | 0.0 | 0.0 | 0.00 | 0.00 | 0.00 | 100 | 1015.4 |
| 20260831233050 | 75 | 162 | 0.0 | 0.0 | 0.00 | 0.00 | 0.00 | 100 | 1015.2 |
| 20260831231554 | 76 | 162 | 0.0 | 0.0 | 0.00 | 0.00 | 0.00 | 100 | 1015.1 |
| 20260831230043 | 77 | 162 | 1.0 | 3.0 | 0.00 | 0.00 | 0.00 | 100 | 1015.1 |
| 20260831224537 | 78 | 162 | 1.0 | 3.0 | 0.00 | 0.00 | 0.00 | 10 | 1015.3 |
| 20260831223039 | 79 | 355 | 0.0 | 2.0 | 0.00 | 0.00 | 0.00 | 10 | 1016.0 |
| 20260831221528 | 78 | 302 | 0.0 | 2.0 | 0.00 | 0.00 | 0.00 | 7 | 1015.8 |
| 20260831220024 | 78 | 301 | 0.0 | 2.0 | 0.00 | 0.00 | 0.00 | 9 | 1015.2 |
| 20260831214520 | 79 | 327 | 1.0 | 4.0 | 0.00 | 0.00 | 0.00 | 18 | 1015.7 |
| 20260831213018 | 79 | 340 | 1.0 | 4.0 | 0.00 | 0.00 | 0.00 | 16 | 1016.1 |
| 20260831211511 | 79 | 335 | 2.0 | 6.0 | 0.00 | 0.00 | 0.00 | 23 | 1016.0 |
| 20260831210012 | 79 | 288 | 2.0 | 7.0 | 0.00 | 0.00 | 0.00 | 26 | 1016.0 |
| 20260831204502 | 80 | 351 | 1.0 | 7.0 | 0.00 | 0.00 | 0.00 | 22 | 1016.3 |
| 20260831203058 | 79 | 343 | 1.0 | 5.0 | 0.00 | 0.00 | 0.00 | 15 | 1016.3 |
| 20260831201559 | 78 | 22 | 2.0 | 5.0 | 0.00 | 0.00 | 0.00 | 18 | 1016.3 |
| 20260831200048 | 78 | 319 | 4.0 | 7.0 | 0.00 | 0.00 | 0.00 | 22 | 1016.1 |
| 20260831194628 | 79 | 342 | 2.0 | 6.0 | 0.00 | 0.00 | 0.00 | 27 | 1016.2 |
| 20260831193040 | 80 | 348 | 2.0 | 6.0 | 0.00 | 0.00 | 0.00 | 32 | 1016.4 |
| 20260831191537 | 81 | 343 | 3.0 | 8.0 | 0.00 | 0.00 | 0.00 | 36 | 1016.6 |
| 20260831190036 | 82 | 299 | 4.0 | 10.0 | 0.00 | 0.00 | 0.00 | 38 | 1016.5 |
| 20260831184529 | 82 | 22 | 3.0 | 6.0 | 0.00 | 0.00 | 0.00 | 25 | 1016.6 |
| 20260831183022 | 81 | 332 | 1.0 | 5.0 | 0.00 | 0.00 | 0.00 | 17 | 1016.8 |
| 20260831181628 | 80 | 262 | 1.0 | 4.0 | 0.00 | 0.00 | 0.00 | 4 | 1016.7 |
| 20260831180052 | 78 | 269 | 2.0 | 3.0 | 0.00 | 0.00 | 0.00 | 1 | 1016.9 |
| 20260831174551 | 78 | 274 | 0.0 | 1.0 | 0.00 | 0.00 | 0.00 | 100 | 1017.0 |
| 20260831173046 | 78 | 268 | 2.0 | 5.0 | 0.00 | 0.00 | 0.00 | 7 | 1017.0 |
| 20260831171544 | 78 | 259 | 2.0 | 5.0 | 0.00 | 0.00 | 0.00 | 5 | 1017.0 |
| 20260831170036 | 79 | 298 | 1.0 | 4.0 | 0.00 | 0.00 | 0.00 | 3 | 1017.0 |
| 20260831164531 | 79 | 290 | 1.0 | 5.0 | 0.00 | 0.00 | 0.00 | 11 | 1017.1 |
| 20260831163030 | 79 | 288 | 3.0 | 7.0 | 0.00 | 0.00 | 0.00 | 8 | 1017.1 |
| 20260831161522 | 78 | 255 | 2.0 | 6.0 | 0.00 | 0.00 | 0.00 | 1 | 1017.2 |
| 20260831160019 | 77 | 246 | 3.0 | 7.0 | 0.00 | 0.00 | 0.00 | 100 | 1017.4 |
| 20260831154526 | 77 | 269 | 3.0 | 6.0 | 0.00 | 0.00 | 0.00 | 2 | 1017.4 |
| 20260831153010 | 76 | 254 | 3.0 | 7.0 | 0.00 | 0.00 | 0.00 | 100 | 1017.2 |
| 20260831151505 | 75 | 277 | 2.0 | 7.0 | 0.00 | 0.00 | 0.00 | 100 | 1017.5 |
| 20260831144637 | 73 | 251 | 3.0 | 10.0 | 0.00 | 0.00 | 0.00 | 100 | 1017.2 |
| 20260831143052 | 73 | 240 | 2.0 | 7.0 | 0.00 | 0.00 | 0.00 | 100 | 1017.3 |
| 20260831141548 | 72 | 280 | 4.0 | 10.0 | 0.00 | 0.00 | 0.00 | 100 | 1016.9 |
| 20260831140044 | 70 | 257 | 4.0 | 8.0 | 0.00 | 0.00 | 0.00 | 100 | 1017.0 |
| 20260831134541 | 70 | 250 | 3.0 | 11.0 | 0.00 | 0.00 | 0.00 | 100 | 1017.2 |
| 20260831133038 | 69 | 269 | 2.0 | 6.0 | 0.00 | 0.00 | 0.00 | 100 | 1017.4 |
| 20260831131530 | 68 | 253 | 4.0 | 8.0 | 0.00 | 0.00 | 0.00 | 100 | 1017.5 |
| 20260831130026 | 68 | 259 | 4.0 | 8.0 | 0.00 | 0.00 | 0.00 | 100 | 1017.5 |
| 20260831124522 | 67 | 255 | 4.0 | 8.0 | 0.00 | 0.00 | 0.00 | 100 | 1017.6 |
| 20260831123017 | 67 | 279 | 3.0 | 9.0 | 0.00 | 0.00 | 0.00 | 100 | 1017.7 |
| 20260831121513 | 66 | 259 | 3.0 | 7.0 | 0.00 | 0.00 | 0.00 | 100 | 1017.6 |
| 20260831120011 | 66 | 252 | 4.0 | 9.0 | 0.00 | 0.00 | 0.00 | 100 | 1017.5 |
| 20260831114508 | 66 | 259 | 3.0 | 10.0 | 0.00 | 0.00 | 0.00 | 100 | 1017.3 |
| 20260831113109 | 66 | 212 | 4.0 | 8.0 | 0.00 | 0.00 | 0.00 | 100 | 1017.4 |
| 20260831111559 | 65 | 236 | 3.0 | 7.0 | 0.00 | 0.00 | 0.00 | 100 | 1017.4 |
| 20260831110053 | 65 | 248 | 4.0 | 9.0 | 0.00 | 0.00 | 0.00 | 100 | 1017.3 |
| 20260831104547 | 65 | 223 | 2.0 | 8.0 | 0.00 | 0.00 | 0.00 | 100 | 1017.1 |
| 20260831103042 | 65 | 227 | 4.0 | 7.0 | 0.00 | 0.00 | 0.00 | 100 | 1017.0 |
| 20260831101538 | 65 | 242 | 2.0 | 7.0 | 0.00 | 0.00 | 0.00 | 100 | 1017.2 |
| 20260831100044 | 65 | 169 | 2.0 | 5.0 | 0.00 | 0.00 | 0.00 | 100 | 1017.4 |
| 20260831094528 | 65 | 162 | 0.0 | 3.0 | 0.00 | 0.00 | 0.00 | 100 | 1017.4 |
| 20260831093025 | 65 | 163 | 0.0 | 4.0 | 0.00 | 0.00 | 0.00 | 100 | 1017.3 |
| 20260831091520 | 65 | 257 | 3.0 | 7.0 | 0.00 | 0.00 | 0.00 | 100 | 1017.1 |
| 20260831090047 | 65 | 191 | 3.0 | 6.0 | 0.00 | 0.00 | 0.00 | 100 | 1017.1 |
| 20260831084510 | 65 | 139 | 2.0 | 4.0 | 0.00 | 0.00 | 0.00 | 100 | 1017.5 |
| 20260831083006 | 65 | 138 | 0.0 | 2.0 | 0.00 | 0.00 | 0.00 | 100 | 1017.7 |
| 20260831081504 | 65 | 153 | 1.0 | 3.0 | 0.00 | 0.00 | 0.00 | 100 | 1017.4 |
| 20260831080110 | 66 | 150 | 4.0 | 7.0 | 0.00 | 0.00 | 0.00 | 100 | 1017.1 |
| 20260831074602 | 65 | 208 | 2.0 | 6.0 | 0.00 | 0.00 | 0.00 | 100 | 1017.1 |
| 20260831073049 | 65 | 192 | 1.0 | 6.0 | 0.00 | 0.00 | 0.00 | 100 | 1017.3 |
| 20260831071550 | 65 | 225 | 1.0 | 4.0 | 0.00 | 0.00 | 0.00 | 100 | 1017.4 |
| 20260831070040 | 65 | 223 | 2.0 | 5.0 | 0.00 | 0.00 | 0.00 | 100 | 1017.3 |
| 20260831064536 | 65 | 242 | 2.0 | 8.0 | 0.00 | 0.00 | 0.00 | 100 | 1017.3 |
| 20260831063031 | 65 | 239 | 3.0 | 8.0 | 0.00 | 0.00 | 0.00 | 100 | 1017.3 |
| 20260831061527 | 65 | 203 | 2.0 | 6.0 | 0.00 | 0.00 | 0.00 | 100 | 1017.4 |
| 20260831060022 | 65 | 202 | 2.0 | 7.0 | 0.00 | 0.00 | 0.00 | 100 | 1017.8 |
| 20260831054517 | 65 | 208 | 2.0 | 10.0 | 0.00 | 0.00 | 0.00 | 100 | 1017.9 |
| 20260831053013 | 66 | 263 | 3.0 | 6.0 | 0.00 | 0.00 | 0.00 | 100 | 1018.6 |
| 20260831051509 | 65 | 220 | 2.0 | 8.0 | 0.00 | 0.00 | 0.00 | 100 | 1018.3 |